Tracking 20712 objects as of 27-May-2020
HD Live streaming from Space Station
objects crossing your sky now

METEOR 3-5

Track METEOR 3-5 now!
10-day predictions
METEOR 3-5 is classified as:


NORAD ID: 21655
Int'l Code: 1991-056A
Perigee: 1,193.6 km
Apogee: 1,212.4 km
Inclination: 82.6 °
Period: 109.3 minutes
Semi major axis: 7573 km
RCS: 4.9525 m2 (large)
Launch date: August 15, 1991
Source: Commonwealth of Independent States (former USSR) (CIS)
Launch site: PLESETSK MISSILE AND SPACE COMPLEX (PKMTR)
aabbcc
Your satellite tracking list
Your tracking list is empty




NASA's NSSDC Master Catalog

Two Line Element Set (TLE):
1 21655U 91056A   20148.52293208 +.00000105 +00000-0 +23959-3 0  9993
2 21655 082.5565 262.1777 0012378 267.3340 092.6365 13.17092197383577
Source of the keplerian elements: AFSPC